CW8192 Weather Reports


time (UTC)temp
C
wind
direction
speed
KPH
gust
KPH
rain 1hr
cm
rain 24hr
cm
rain mn
cm
humidity
%
barometer
mb
20260510175704 18 292 4.8 12.9 0.00 0.20 0.00 69 1012.7
20260510174705 17 295 4.8 14.5 0.00 0.23 0.00 75 1012.8
20260510173204 17 297 3.2 11.3 0.00 0.25 0.00 74 1012.5
20260510172706 17 286 4.8 14.5 0.00 0.25 0.00 72 1012.6
20260510172205 17 309 6.4 11.3 0.00 0.28 0.00 74 1012.5
20260510171705 17 319 4.8 11.3 0.00 0.28 0.00 76 1012.5
20260510171205 17 308 3.2 4.8 0.00 0.28 0.00 73 1012.5
20260510170705 17 355 4.8 16.1 0.00 0.28 0.00 76 1012.6
20260510170205 17 288 8.0 14.5 0.00 0.30 0.00 77 1012.6
20260510165705 17 286 8.0 14.5 0.00 0.30 0.00 76 1012.6
20260510164704 16 286 6.4 14.5 0.00 0.30 0.00 80 1012.7
20260510163704 16 331 4.8 19.3 0.00 0.33 0.00 82 1012.8
20260510163205 15 297 3.2 12.9 0.00 0.33 0.00 82 1012.8
20260510162706 15 296 8.0 12.9 0.00 0.33 0.00 84 1012.8
20260510162204 15 305 8.0 14.5 0.00 0.33 0.00 82 1012.7
20260510161704 15 319 4.8 19.3 0.00 0.36 0.00 85 1012.6
20260510161205 15 275 9.7 19.3 0.00 0.36 0.00 84 1012.7
20260510160705 15 291 11.3 25.7 0.00 0.38 0.00 84 1012.7
20260510155704 15 322 4.8 11.3 0.00 0.41 0.00 86 1012.7
20260510155205 14 312 4.8 12.9 0.00 0.41 0.00 88 1012.6
20260510154705 13 294 8.0 16.1 0.00 0.41 0.00 89 1012.7
20260510154204 13 301 9.7 19.3 0.00 0.43 0.00 89 1012.6
20260510153704 13 303 9.7 22.5 0.00 0.43 0.00 87 1012.7
20260510153205 15 309 12.9 29.0 0.00 0.46 0.00 86 1012.7
20260510152704 15 267 6.4 11.3 0.00 0.46 0.00 87 1012.4
20260510152205 15 288 4.8 12.9 0.00 0.46 0.00 89 1012.1
20260510151705 15 275 4.8 14.5 0.00 0.48 0.00 88 1012.1
20260510151205 15 277 3.2 4.8 0.00 0.48 0.00 88 1012.0
20260510150205 15 274 1.6 4.8 0.00 0.51 0.00 87 1011.8
20260510145705 15 282 3.2 4.8 0.00 0.53 0.00 89 1011.8
20260510144705 15 237 3.2 8.0 0.00 0.56 0.00 87 1011.7
20260510144204 15 248 4.8 4.8 0.00 0.58 0.00 87 1011.6
20260510143705 15 277 1.6 4.8 0.00 0.61 0.00 87 1011.5
20260510143205 15 278 3.2 4.8 0.00 0.64 0.00 88 1011.5
20260510142705 15 239 3.2 4.8 0.00 0.66 0.00 89 1011.4
20260510141705 15 219 4.8 9.7 0.00 0.71 0.00 88 1011.5
20260510141205 15 230 6.4 12.9 0.00 0.74 0.00 89 1011.5
20260510140705 15 262 3.2 4.8 0.00 0.74 0.00 88 1011.4
20260510135704 15 247 8.0 12.9 0.00 0.79 0.00 86 1011.4
20260510135204 16 255 4.8 11.3 0.00 0.81 0.00 86 1011.4
20260510134704 16 234 6.4 12.9 0.00 0.84 0.00 86 1011.3
20260510134204 16 221 8.0 19.3 0.00 0.86 0.00 87 1011.2
20260510133704 16 211 4.8 12.9 0.00 0.89 0.00 87 1011.1
20260510132204 15 191 9.7 16.1 0.00 0.94 0.00 90 1011.0
20260510131705 14 222 4.8 19.3 0.00 0.94 0.00 91 1011.0
20260510125704 13 195 8.0 16.1 0.00 0.97 0.00 92 1011.1
20260510125205 13 210 8.0 16.1 0.00 0.97 0.00 92 1011.1
20260510124705 13 215 4.8 12.9 0.00 0.99 0.00 92 1011.2
20260510123704 13 207 4.8 12.9 0.00 1.02 0.00 92 1011.1
20260510123205 13 218 3.2 12.9 0.00 1.04 0.00 92 1011.0
20260510122705 14 246 8.0 16.1 0.00 1.07 0.00 92 1011.0
20260510122204 13 241 8.0 16.1 0.00 1.07 0.00 94 1010.9
20260510121704 13 206 9.7 16.1 0.00 1.09 0.00 95 1010.9
20260510121204 12 196 6.4 12.9 0.00 1.09 0.00 95 1011.0
20260510120704 12 192 9.7 19.3 0.00 1.12 0.00 95 1011.0
20260510120204 12 196 8.0 14.5 0.00 1.12 0.00 95 1011.0
20260510115204 12 177 6.4 12.9 0.00 1.12 0.00 96 1010.8
20260510114704 12 173 9.7 19.3 0.00 1.12 0.00 96 1010.8
20260510114204 12 206 3.2 12.9 0.00 1.12 0.00 96 1010.8
20260510113705 11 193 9.7 22.5 0.00 1.12 0.00 96 1010.9
20260510112704 11 207 8.0 19.3 0.00 1.12 0.00 96 1010.8
20260510112205 11 197 8.0 16.1 0.00 1.12 0.00 96 1010.9
20260510111204 11 192 4.8 16.1 0.00 1.12 0.00 96 1010.9
20260510110704 11 207 8.0 20.9 0.00 1.12 0.00 96 1010.8
20260510110204 11 209 8.0 16.1 0.00 1.12 0.00 96 1010.8
20260510105704 11 223 4.8 16.1 0.00 1.12 0.00 96 1010.8
20260510105205 11 240 4.8 12.9 0.00 1.12 0.00 96 1010.7
20260510104705 11 198 8.0 11.3 0.00 1.12 0.00 96 1010.6
20260510104204 11 212 6.4 12.9 0.00 1.12 0.00 96 1010.5
20260510103704 11 219 4.8 4.8 0.00 1.12 0.00 95 1010.4
20260510103205 11 166 8.0 19.3 0.00 1.12 0.00 95 1010.2
20260510102704 11 192 6.4 19.3 0.00 1.12 0.00 95 1010.2
20260510102204 11 174 6.4 20.9 0.00 1.12 0.00 95 1010.1
20260510101704 11 175 4.8 14.5 0.00 1.12 0.00 95 1010.0
20260510100704 11 183 6.4 12.9 0.00 1.12 0.00 94 1009.8
20260510100204 10 211 6.4 14.5 0.00 1.12 0.00 94 1009.8
20260510095704 10 180 4.8 16.1 0.00 1.12 0.00 94 1009.8
20260510095204 10 232 3.2 16.1 0.00 1.12 0.00 93 1009.8
20260510094204 10 194 3.2 11.3 0.00 1.12 0.00 93 1009.7
20260510093704 10 168 1.6 8.0 0.00 1.12 0.00 93 1009.6
20260510093205 10 180 3.2 9.7 0.00 1.12 0.00 94 1009.5
20260510092704 10 185 4.8 12.9 0.00 1.12 0.00 94 1009.4
20260510092204 10 164 3.2 4.8 0.00 1.12 0.00 94 1009.3
20260510091704 10 152 3.2 4.8 0.00 1.12 0.00 94 1009.3
20260510091204 10 158 3.2 8.0 0.00 1.12 0.00 95 1009.3
20260510090704 10 142 4.8 11.3 0.00 1.12 0.00 95 1009.3
20260510090205 10 140 4.8 9.7 0.00 1.12 0.00 95 1009.3
20260510085704 10 144 4.8 14.5 0.00 1.12 0.00 95 1009.4
20260510085206 10 184 4.8 8.0 0.00 1.12 0.00 95 1009.4
20260510084704 10 211 3.2 16.1 0.00 1.12 0.00 95 1009.3
20260510084204 10 171 8.0 14.5 0.00 1.12 0.00 95 1009.3
20260510083705 10 202 4.8 14.5 0.00 1.12 0.00 95 1009.5
20260510083204 10 216 4.8 12.9 0.00 1.12 0.00 95 1009.3
20260510082704 11 216 8.0 19.3 0.00 1.12 0.00 95 1009.2
20260510082204 11 200 6.4 14.5 0.00 1.12 0.00 95 1009.3
20260510081205 11 216 4.8 16.1 0.00 1.12 0.00 95 1009.1
20260510080705 11 216 9.7 20.9 0.00 1.12 0.00 95 1009.2
20260510080204 11 211 9.7 19.3 0.00 1.12 0.00 95 1008.8
20260510075704 11 169 8.0 22.5 0.00 1.12 0.00 95 1009.1
20260510075205 11 185 11.3 22.5 0.00 1.12 0.00 95 1009.4
20260510074704 11 197 9.7 27.4 0.00 1.12 0.00 96 1009.5
20260510074204 11 192 8.0 19.3 0.00 1.12 0.00 96 1009.5
20260510073704 11 189 8.0 20.9 0.00 1.12 0.00 95 1009.7
20260510073205 11 204 9.7 22.5 0.00 1.12 0.00 95 1009.8
20260510072705 11 205 4.8 22.5 0.00 1.12 0.00 95 1009.9
20260510071704 11 220 3.2 11.3 0.00 1.12 0.00 95 1010.2
20260510071204 11 193 6.4 12.9 0.00 1.12 0.00 96 1010.2
20260510070704 11 209 4.8 12.9 0.00 1.12 0.00 96 1010.2
20260510070205 11 212 8.0 14.5 0.00 1.12 0.00 96 1010.2
20260510065205 11 229 8.0 14.5 0.00 1.12 0.00 96 1010.2
20260510064704 11 220 3.2 8.0 0.00 1.12 0.00 96 1010.3
20260510064204 11 236 4.8 9.7 0.00 1.12 0.00 96 1010.3
20260510063704 11 240 4.8 11.3 0.00 1.12 0.00 96 1010.1
20260510063205 11 239 6.4 9.7 0.00 1.12 0.00 96 1010.1
20260510062705 11 277 1.6 8.0 0.00 1.12 0.00 96 1009.9
20260510062205 11 210 4.8 9.7 0.00 1.12 0.00 95 1009.6
20260510061704 11 214 3.2 9.7 0.00 1.12 0.00 95 1009.7
20260510061205 11 206 4.8 9.7 0.00 1.12 0.00 96 1009.6
20260510060704 11 195 3.2 12.9 0.00 1.12 0.00 96 1009.6
20260510060204 11 146 3.2 12.9 0.00 1.12 0.00 96 1009.5
20260510055704 10 186 11.3 19.3 0.00 1.12 0.00 96 1009.5
20260510055204 10 174 3.2 9.7 0.00 1.12 0.00 96 1009.5
20260510054704 11 148 6.4 14.5 0.00 1.12 0.00 96 1009.5
20260510054205 11 179 4.8 12.9 0.00 1.12 0.00 96 1009.6
20260510053704 11 181 9.7 22.5 0.00 1.12 0.00 96 1009.6
20260510053204 11 216 6.4 14.5 0.00 1.12 0.00 96 1009.6
20260510052204 11 195 8.0 20.9 0.00 1.12 0.00 95 1009.6
20260510051704 11 186 4.8 19.3 0.00 1.12 0.00 95 1009.5
20260510051204 11 193 9.7 19.3 0.00 1.12 0.00 96 1009.5
20260510050704 11 146 6.4 12.9 0.00 1.12 0.00 96 1009.5
20260510050205 11 212 4.8 14.5 0.00 1.12 0.00 96 1009.6
20260510045704 11 216 8.0 16.1 0.00 1.12 0.00 96 1009.6
20260510045204 11 210 3.2 9.7 0.00 1.12 0.00 96 1009.7
20260510044704 11 179 8.0 16.1 0.00 1.12 0.00 96 1009.7
20260510044204 11 204 4.8 11.3 0.00 1.12 0.00 96 1009.7
20260510043704 11 196 9.7 20.9 0.00 1.12 0.00 95 1009.7
20260510043204 11 227 6.4 16.1 0.00 1.12 0.00 95 1009.8
20260510042704 11 185 4.8 12.9 0.00 1.12 0.00 95 1009.7
20260510042204 11 203 8.0 19.3 0.00 1.12 0.00 95 1009.6
20260510041704 11 175 8.0 19.3 0.00 1.12 0.00 95 1009.7
20260510041204 11 192 8.0 19.3 0.00 1.12 0.00 95 1009.8
20260510040204 11 223 9.7 14.5 0.00 1.12 0.00 95 1009.7
20260510035704 11 198 6.4 22.5 0.00 1.12 1.12 95 1009.7
20260510035204 11 192 8.0 22.5 0.00 1.12 1.12 95 1009.6
20260510034704 11 192 4.8 19.3 0.00 1.12 1.12 95 1009.6
20260510034204 11 180 6.4 14.5 0.00 1.12 1.12 95 1009.5
20260510032205 11 175 6.4 12.9 0.00 1.12 1.12 95 1009.4
20260510031704 11 204 6.4 12.9 0.00 1.12 1.12 95 1009.4
20260510031204 11 193 8.0 19.3 0.00 1.12 1.12 95 1009.4
20260510030705 11 161 6.4 16.1 0.00 1.12 1.12 95 1009.4
20260510024204 11 159 3.2 9.7 0.00 1.12 1.12 95 1009.7
20260510023704 11 174 6.4 11.3 0.00 1.12 1.12 95 1009.7
20260510023204 11 193 8.0 12.9 0.00 1.12 1.12 95 1009.7
20260510022704 11 184 6.4 14.5 0.00 1.12 1.12 95 1009.7
20260510021704 11 203 9.7 22.5 0.00 1.12 1.12 95 1009.9
20260510021204 11 205 6.4 16.1 0.00 1.12 1.12 96 1009.8
20260510020705 11 194 6.4 19.3 0.00 1.12 1.12 96 1009.7
20260510020203 11 188 8.0 12.9 0.00 1.12 1.12 95 1009.8
20260510015704 11 184 4.8 14.5 0.00 1.12 1.12 96 1009.9
20260510015204 11 193 4.8 14.5 0.00 1.12 1.12 96 1009.7
20260510014704 11 170 6.4 12.9 0.00 1.12 1.12 96 1009.7
20260510013704 11 149 3.2 14.5 0.00 1.12 1.12 96 1009.7
20260510013204 11 146 6.4 19.3 0.00 1.12 1.12 96 1009.7
20260510012704 11 182 3.2 11.3 0.00 1.12 1.12 96 1009.8
20260510012204 11 178 4.8 12.9 0.00 1.12 1.12 95 1009.8
20260510011704 11 168 4.8 14.5 0.00 1.12 1.12 95 1009.8
20260510011204 11 160 4.8 11.3 0.00 1.12 1.12 95 1009.9
20260510010704 11 167 3.2 14.5 0.00 1.12 1.12 95 1009.8
20260510010204 11 158 3.2 11.3 0.00 1.12 1.12 95 1009.8
20260510005704 11 162 1.6 9.7 0.00 1.12 1.12 95 1009.8
20260510005204 11 173 3.2 9.7 0.00 1.12 1.12 95 1009.7
20260510004204 11 225 1.6 12.9 0.00 1.12 1.12 95 1009.9
20260510003704 11 204 4.8 9.7 0.00 1.12 1.12 95 1009.8
20260510003204 11 207 3.2 8.0 0.00 1.12 1.12 96 1009.6
20260510002704 11 183 3.2 9.7 0.00 1.12 1.12 96 1009.5
20260510002204 11 190 1.6 8.0 0.00 1.12 1.12 96 1009.3
20260510001704 11 203 4.8 11.3 0.00 1.12 1.12 96 1009.2
20260510001205 11 205 4.8 11.3 0.00 1.12 1.12 95 1009.1
20260510000703 11 192 4.8 12.9 0.00 1.12 1.12 96 1009.0
20260510000204 11 194 3.2 9.7 0.00 1.12 1.12 96 1009.0
20260509235704 11 208 4.8 12.9 0.00 1.12 1.12 96 1008.9
20260509235204 11 200 8.0 19.3 0.00 1.12 1.12 95 1008.8
20260509234204 11 211 8.0 12.9 0.00 1.12 1.12 96 1008.8
20260509233704 11 185 4.8 19.3 0.00 1.12 1.12 96 1008.6
20260509233204 11 156 3.2 9.7 0.00 1.12 1.12 96 1008.5
20260509232704 11 194 6.4 14.5 0.00 1.12 1.12 95 1008.5
20260509232204 11 189 6.4 14.5 0.00 1.12 1.12 95 1008.3
20260509231703 11 173 8.0 12.9 0.00 1.12 1.12 95 1008.4
20260509231204 12 192 4.8 14.5 0.00 1.12 1.12 95 1008.5
20260509230204 12 189 9.7 19.3 0.00 1.12 1.12 95 1008.5
20260509225704 12 184 9.7 20.9 0.00 1.12 1.12 95 1008.5
20260509225204 12 193 6.4 12.9 0.00 1.12 1.12 95 1008.6
20260509224704 12 189 4.8 22.5 0.00 1.12 1.12 95 1008.5
20260509224204 12 179 4.8 19.3 0.00 1.12 1.12 95 1008.6
20260509223705 12 184 9.7 20.9 0.00 1.12 1.12 95 1008.7
20260509222704 12 179 8.0 19.3 0.00 1.12 1.12 95 1008.6
20260509222204 12 212 6.4 16.1 0.00 1.12 1.12 95 1008.6
20260509221704 12 185 9.7 20.9 0.00 1.12 1.12 95 1008.5
20260509221204 12 197 8.0 20.9 0.00 1.12 1.12 95 1008.5
20260509220703 12 190 9.7 20.9 0.00 1.12 1.12 95 1008.6
20260509220204 12 187 4.8 14.5 0.00 1.12 1.12 96 1008.7
20260509215706 12 185 4.8 25.7 0.00 1.12 1.12 95 1008.6
20260509215205 12 196 4.8 14.5 0.00 1.12 1.12 96 1008.6
20260509214206 12 203 3.2 12.9 0.00 1.12 1.12 96 1008.8
20260509213706 12 193 9.7 20.9 0.00 1.12 1.12 95 1008.8
20260509213206 12 191 9.7 16.1 0.00 1.12 1.12 96 1008.8
20260509212205 12 214 6.4 14.5 0.00 1.12 1.12 95 1008.8
20260509211705 12 217 14.5 20.9 0.00 1.12 1.12 95 1008.8
20260509211206 12 205 4.8 19.3 0.00 1.12 1.12 94 1008.9
20260509210705 12 200 9.7 19.3 0.00 1.12 1.12 94 1008.8
20260509210206 12 203 6.4 11.3 0.00 1.12 1.12 94 1008.9
20260509205706 12 202 8.0 16.1 0.00 1.12 1.12 94 1008.9
20260509205206 12 204 9.7 20.9 0.00 1.12 1.12 94 1008.9
20260509204706 11 207 6.4 19.3 0.00 1.12 1.12 93 1009.1
20260509204206 11 197 9.7 19.3 0.00 1.12 1.12 93 1009.1
20260509203705 11 217 8.0 19.3 0.00 1.12 1.12 93 1009.2
20260509203206 11 159 6.4 14.5 0.00 1.12 1.12 93 1009.2
20260509202707 11 176 4.8 14.5 0.00 1.12 1.12 92 1009.3
20260509202207 11 164 4.8 12.9 0.00 1.12 1.12 92 1009.3
20260509201705 11 172 4.8 19.3 0.03 1.12 1.12 92 1009.4
20260509201206 11 203 8.0 16.1 0.03 1.12 1.12 92 1009.4
20260509200706 11 187 6.4 12.9 0.03 1.12 1.12 92 1009.7
20260509200206 11 184 8.0 19.3 0.05 1.12 1.12 92 1009.8
20260509195706 11 202 4.8 19.3 0.08 1.12 1.12 92 1009.8
20260509195205 11 181 8.0 19.3 0.08 1.12 1.12 92 1010.0
20260509194706 11 134 4.8 11.3 0.10 1.12 1.12 92 1009.9
20260509194206 11 203 4.8 19.3 0.10 1.12 1.12 92 1010.0
20260509193705 11 150 9.7 19.3 0.13 1.12 1.12 92 1010.0
20260509193206 11 184 8.0 19.3 0.13 1.12 1.12 92 1010.0
20260509192705 11 177 9.7 19.3 0.15 1.12 1.12 92 1010.1
20260509192205 11 180 8.0 14.5 0.15 1.12 1.12 92 1010.1
20260509191705 10 189 4.8 14.5 0.15 1.09 1.09 92 1010.2
20260509191206 10 202 3.2 11.3 0.15 1.09 1.09 92 1010.3
20260509190205 10 188 4.8 9.7 0.15 1.07 1.07 92 1010.4
20260509185706 10 182 6.4 14.5 0.13 1.04 1.04 92 1010.5
20260509185206 10 203 4.8 9.7 0.15 1.04 1.04 92 1010.4
20260509184205 10 208 4.8 9.7 0.13 1.02 1.02 92 1010.5
20260509183706 10 191 6.4 12.9 0.10 0.99 0.99 92 1010.4
20260509183205 10 177 4.8 14.5 0.13 0.99 0.99 92 1010.4
20260509181205 10 166 4.8 16.1 0.10 0.94 0.94 93 1010.4
20260509180706 10 155 4.8 14.5 0.08 0.91 0.91 93 1010.3
20260509180206 10 164 8.0 16.1 0.10 0.91 0.91 93 1010.3